Time,TemperatureF,DewpointF,PressureIn,WindDirection,WindDirectionDegrees,WindSpeedMPH,WindSpeedGustMPH,Humidity,HourlyPrecipIn,Conditions,Clouds,dailyrainin,SoftwareType,DateUTC
2013-12-06 00:11:00,-6.0,-11.0,30.79,NE,48,0.0,-999.0,78,-99.99,,,-99.99,,2013-12-06 07:11:00,
2013-12-06 00:22:00,-7.0,-12.0,30.79,NNW,335,0.0,-999.0,78,-99.99,,,-99.99,,2013-12-06 07:22:00,
2013-12-06 00:42:00,-7.0,-12.0,30.79,NNW,335,0.0,-999.0,79,-99.99,,,-99.99,,2013-12-06 07:42:00,
2013-12-06 00:52:00,-7.0,-12.0,30.79,NNW,335,0.0,-999.0,80,-99.99,,,-99.99,,2013-12-06 07:52:00,
2013-12-06 01:22:00,-7.0,-12.0,30.78,NNW,335,0.0,-999.0,79,-99.99,,,-99.99,,2013-12-06 08:22:00,
2013-12-06 01:42:00,-8.0,-12.0,30.79,NNW,335,0.0,-999.0,80,-99.99,,,-99.99,,2013-12-06 08:42:00,
2013-12-06 01:52:00,-8.0,-12.0,30.78,NNW,335,0.0,-999.0,81,-99.99,,,-99.99,,2013-12-06 08:52:00,
2013-12-06 02:22:00,-7.0,-11.0,30.79,NNW,335,0.0,-999.0,81,-99.99,,,-99.99,,2013-12-06 09:22:00,
2013-12-06 02:43:00,-7.0,-11.0,30.79,NNW,335,0.0,-999.0,81,-99.99,,,-99.99,,2013-12-06 09:43:00,
2013-12-06 02:53:00,-7.0,-11.0,30.79,NNW,336,0.0,-999.0,81,-99.99,,,-99.99,,2013-12-06 09:53:00,
2013-12-06 03:23:00,-7.0,-12.0,30.79,NNW,336,0.0,-999.0,80,-99.99,,,-99.99,,2013-12-06 10:23:00,
2013-12-06 03:43:00,-7.0,-12.0,30.79,NNW,336,0.0,-999.0,80,-99.99,,,-99.99,,2013-12-06 10:43:00,
2013-12-06 03:52:00,-7.0,-12.0,30.79,NNW,336,0.0,-999.0,80,-99.99,,,-99.99,,2013-12-06 10:52:00,
2013-12-06 04:22:00,-8.0,-12.0,30.79,North,350,0.0,-999.0,80,-99.99,,,-99.99,,2013-12-06 11:22:00,
2013-12-06 04:42:00,-8.0,-12.0,30.79,North,350,0.0,-999.0,81,-99.99,,,-99.99,,2013-12-06 11:42:00,
2013-12-06 04:53:00,-7.0,-11.0,30.79,NNW,348,0.0,-999.0,81,-99.99,,,-99.99,,2013-12-06 11:53:00,
2013-12-06 05:21:00,-6.0,-10.0,30.79,North,360,0.0,-999.0,81,-99.99,,,-99.99,,2013-12-06 12:21:00,
2013-12-06 05:42:00,-6.0,-10.0,30.79,NNW,344,0.0,-999.0,81,-99.99,,,-99.99,,2013-12-06 12:42:00,
2013-12-06 05:52:00,-7.0,-11.0,30.79,NNW,344,0.0,-999.0,81,-99.99,,,-99.99,,2013-12-06 12:52:00,
2013-12-06 06:11:00,-7.0,-12.0,30.79,NNW,344,0.0,-999.0,80,-99.99,,,-99.99,,2013-12-06 13:11:00,
2013-12-06 06:21:00,-7.0,-12.0,30.79,NNW,344,0.0,-999.0,80,-99.99,,,-99.99,,2013-12-06 13:21:00,
2013-12-06 06:42:00,-8.0,-12.0,30.79,NNW,344,0.0,-999.0,80,-99.99,,,-99.99,,2013-12-06 13:42:00,
2013-12-06 06:52:00,-8.0,-12.0,30.80,NNW,344,0.0,-999.0,80,-99.99,,,-99.99,,2013-12-06 13:52:00,
2013-12-06 07:11:00,-8.0,-12.0,30.80,NNW,344,0.0,-999.0,80,-99.99,,,-99.99,,2013-12-06 14:11:00,
2013-12-06 07:22:00,-8.0,-12.0,30.80,NNW,344,0.0,-999.0,80,-99.99,,,-99.99,,2013-12-06 14:22:00,
2013-12-06 07:42:00,-8.0,-10.0,30.80,NNW,344,0.0,-999.0,92,-99.99,,,-99.99,,2013-12-06 14:42:00,
2013-12-06 07:52:00,-9.0,-13.0,30.81,NNW,344,0.0,-999.0,80,-99.99,,,-99.99,,2013-12-06 14:52:00,
2013-12-06 08:22:00,-8.0,-12.0,30.81,NNW,344,0.0,-999.0,80,-99.99,,,-99.99,,2013-12-06 15:22:00,
2013-12-06 08:33:00,-8.0,-12.0,30.81,NNW,344,0.0,-999.0,80,-99.99,,,-99.99,,2013-12-06 15:33:00,
2013-12-06 08:44:00,-8.0,-12.0,30.81,NNW,344,0.0,-999.0,80,-99.99,,,-99.99,,2013-12-06 15:44:00,
2013-12-06 08:54:00,-8.0,-12.0,30.82,NNW,344,0.0,-999.0,81,-99.99,,,-99.99,,2013-12-06 15:54:00,
2013-12-06 09:24:00,-6.0,-10.0,30.83,NNW,333,0.0,-999.0,81,-99.99,,,-99.99,,2013-12-06 16:24:00,
2013-12-06 09:43:00,-5.0,-9.0,30.84,NNW,333,0.0,-999.0,82,-99.99,,,-99.99,,2013-12-06 16:43:00,
2013-12-06 09:53:00,-4.0,-8.0,30.84,North,360,0.0,-999.0,81,-99.99,,,-99.99,,2013-12-06 16:53:00,
2013-12-06 10:12:00,-4.0,-8.0,30.84,NNE,27,0.0,-999.0,81,-99.99,,,-99.99,,2013-12-06 17:12:00,
2013-12-06 10:22:00,-2.0,-7.0,30.85,NNE,31,1.0,-999.0,80,-99.99,,,-99.99,,2013-12-06 17:22:00,
2013-12-06 10:43:00,-1.0,-6.0,30.85,NNE,22,0.0,-999.0,79,-99.99,,,-99.99,,2013-12-06 17:43:00,
2013-12-06 10:52:00,-1.0,-6.0,30.85,NNE,13,0.0,-999.0,78,-99.99,,,-99.99,,2013-12-06 17:52:00,
2013-12-06 11:12:00,-1.0,-6.0,30.85,NNE,16,0.0,-999.0,78,-99.99,,,-99.99,,2013-12-06 18:12:00,
2013-12-06 11:22:00,-1.0,-6.0,30.85,NNE,15,1.0,-999.0,78,-99.99,,,-99.99,,2013-12-06 18:22:00,
2013-12-06 11:42:00,0.0,-5.0,30.84,NNE,15,0.0,-999.0,78,-99.99,,,-99.99,,2013-12-06 18:42:00,
2013-12-06 11:52:00,1.0,-5.0,30.84,NNE,15,0.0,-999.0,76,-99.99,,,-99.99,,2013-12-06 18:52:00,
2013-12-06 12:21:00,3.0,-4.0,30.82,WNW,286,0.0,-999.0,71,-99.99,,,-99.99,,2013-12-06 19:21:00,
2013-12-06 12:42:00,4.0,-4.0,30.82,SW,216,0.0,-999.0,70,-99.99,,,-99.99,,2013-12-06 19:42:00,
2013-12-06 12:52:00,5.0,-3.0,30.81,NW,305,0.0,-999.0,69,-99.99,,,-99.99,,2013-12-06 19:52:00,
2013-12-06 13:11:00,4.0,-4.0,30.81,NW,313,0.0,-999.0,67,-99.99,,,-99.99,,2013-12-06 20:11:00,
2013-12-06 13:21:00,4.0,-5.0,30.81,NW,325,0.0,-999.0,66,-99.99,,,-99.99,,2013-12-06 20:21:00,
2013-12-06 13:52:00,3.0,-6.0,30.80,NE,55,0.0,-999.0,66,-99.99,,,-99.99,,2013-12-06 20:52:00,
2013-12-06 14:21:00,2.0,-6.0,30.79,NNE,23,0.0,-999.0,67,-99.99,,,-99.99,,2013-12-06 21:21:00,
2013-12-06 14:43:00,2.0,-6.0,30.79,NNE,28,2.0,-999.0,68,-99.99,,,-99.99,,2013-12-06 21:43:00,
2013-12-06 14:53:00,3.0,-5.0,30.78,NNE,30,0.0,-999.0,68,-99.99,,,-99.99,,2013-12-06 21:53:00,
2013-12-06 15:23:00,4.0,-5.0,30.78,NNW,340,0.0,-999.0,66,-99.99,,,-99.99,,2013-12-06 22:23:00,
2013-12-06 15:42:00,3.0,-6.0,30.79,NNW,338,0.0,-999.0,66,-99.99,,,-99.99,,2013-12-06 22:42:00,
2013-12-06 15:53:00,3.0,-6.0,30.78,NNW,338,0.0,-999.0,66,-99.99,,,-99.99,,2013-12-06 22:53:00,
2013-12-06 16:22:00,1.0,-7.0,30.79,NNW,338,0.0,-999.0,67,-99.99,,,-99.99,,2013-12-06 23:22:00,
2013-12-06 16:42:00,0.0,-5.0,30.79,NNW,341,0.0,-999.0,77,-99.99,,,-99.99,,2013-12-06 23:42:00,
2013-12-06 16:52:00,0.0,-7.0,30.80,NNW,342,0.0,-999.0,71,-99.99,,,-99.99,,2013-12-06 23:52:00,
2013-12-06 17:11:00,-1.0,-8.0,30.80,NNW,346,0.0,-999.0,72,-99.99,,,-99.99,,2013-12-07 00:11:00,
2013-12-06 17:21:00,-1.0,-8.0,30.80,NNW,346,0.0,-999.0,73,-99.99,,,-99.99,,2013-12-07 00:21:00,
2013-12-06 17:42:00,-3.0,-10.0,30.81,North,355,1.0,-999.0,72,-99.99,,,-99.99,,2013-12-07 00:42:00,
2013-12-06 17:52:00,-3.0,-9.0,30.81,NNE,28,2.0,-999.0,75,-99.99,,,-99.99,,2013-12-07 00:52:00,
2013-12-06 18:11:00,-3.0,-9.0,30.81,NE,43,2.0,-999.0,76,-99.99,,,-99.99,,2013-12-07 01:11:00,
2013-12-06 18:21:00,-4.0,-10.0,30.81,NE,44,2.0,-999.0,76,-99.99,,,-99.99,,2013-12-07 01:21:00,
2013-12-06 18:42:00,-3.0,-9.0,30.82,NE,55,3.0,-999.0,76,-99.99,,,-99.99,,2013-12-07 01:42:00,
2013-12-06 18:52:00,-3.0,-9.0,30.82,NE,56,2.0,-999.0,76,-99.99,,,-99.99,,2013-12-07 01:52:00,
2013-12-06 19:21:00,-3.0,-8.0,30.84,ENE,69,0.0,-999.0,77,-99.99,,,-99.99,,2013-12-07 02:21:00,
2013-12-06 19:42:00,-3.0,-9.0,30.84,North,360,0.0,-999.0,75,-99.99,,,-99.99,,2013-12-07 02:42:00,
2013-12-06 19:52:00,-4.0,-9.0,30.84,North,360,0.0,-999.0,77,-99.99,,,-99.99,,2013-12-07 02:52:00,
2013-12-06 20:22:00,-7.0,-13.0,30.85,NE,38,2.0,-999.0,76,-99.99,,,-99.99,,2013-12-07 03:22:00,
2013-12-06 20:43:00,-8.0,-13.0,30.84,NE,46,2.0,-999.0,77,-99.99,,,-99.99,,2013-12-07 03:43:00,
2013-12-06 20:53:00,-9.0,-14.0,30.84,NE,48,3.0,-999.0,77,-99.99,,,-99.99,,2013-12-07 03:53:00,
2013-12-06 21:22:00,-10.0,-15.0,30.85,NE,36,2.0,-999.0,78,-99.99,,,-99.99,,2013-12-07 04:22:00,
2013-12-06 21:43:00,-10.0,-15.0,30.85,NE,42,2.0,-999.0,78,-99.99,,,-99.99,,2013-12-07 04:43:00,
2013-12-06 21:53:00,-10.0,-15.0,30.86,NE,40,0.0,-999.0,78,-99.99,,,-99.99,,2013-12-07 04:53:00,
2013-12-06 22:12:00,-10.0,-15.0,30.85,NNE,28,0.0,-999.0,78,-99.99,,,-99.99,,2013-12-07 05:12:00,
2013-12-06 22:22:00,-10.0,-15.0,30.86,NNE,25,1.0,-999.0,78,-99.99,,,-99.99,,2013-12-07 05:22:00,
2013-12-06 22:42:00,-10.0,-15.0,30.86,North,5,1.0,-999.0,78,-99.99,,,-99.99,,2013-12-07 05:42:00,
2013-12-06 22:53:00,-10.0,-15.0,30.86,NE,36,1.0,-999.0,77,-99.99,,,-99.99,,2013-12-07 05:53:00,
2013-12-06 23:22:00,-11.0,-16.0,30.86,NE,37,0.0,-999.0,78,-99.99,,,-99.99,,2013-12-07 06:22:00,
2013-12-06 23:43:00,-10.0,-15.0,30.86,NNE,20,0.0,-999.0,79,-99.99,,,-99.99,,2013-12-07 06:43:00,
2013-12-06 23:53:00,-10.0,-15.0,30.86,NNE,21,0.0,-999.0,79,-99.99,,,-99.99,,2013-12-07 06:53:00,